LiveATC.Net - Listen to live air traffic control over the Internet!


ICAO: ENVA  IATA: TRD   Airport: Vaernes Airport
City: Trondheim
Country: Norway   Continent: Europe
ENVA METAR Weather: ENVA 280220Z 11009KT CAVOK 17/09 Q1006 RMK WIND 670FT 15012KT
ENVA Flight Activity (FlightAware)
ENVA Gnd/Twr/App
Feed Status: DOWN
Last heard on: 2016-07-08 18:34:03 (19 days 8 hours 16 minutes ago)
ENVA Gnd/Twr/App Audio Archives
FacilityFrequency
Approach118.250
Trondheim Ground121.600
Trondheim Ground121.900
Trondheim Tower118.600
Trondheim Tower119.400


NOTICE

Unauthorized use prohibited. See LiveATC.net Terms of Service


Find LiveATC Audio Streams


Airport/ARTCC Code

Frequency
(e.g., 124.400, 128.75)
Site-wide search

Browse LiveATC Feeds
LiveATC Coverage Map
Top 50 LiveATC Feeds
Bad Weather Areas

LiveATC FAQ
Offer a LiveATC Feed
Contact LiveATC.net
Press Inquiries

LiveATC on iPhone
LiveATC on Android

Windows Phone
Windows 8/10

LiveATC Mobile
(Mobile browser)

ATC Audio Archives
Interesting Recordings

LiveATC Forums


Home Page
About LiveATC.net
Make a Donation
LiveATC Store

Terms of Use
Privacy Policy

Canadian Air Freqs

AIRMETs/SIGMETs

FAA Airport Status
Nat'l Airspace Status
Arrival Demand Charts


Server Software By:
Icecast.org
Liquidsoap